Lid_Strength_Index
1 5 6 7 11 11 13 11 9 8 8 8 7 8 8 7 6 7 1 0 1 -0 -1 -1 -1 -1 -1 -1 -1 -1 -1 -1 -1 -1 -1 -1 -1 -1 -1 -1 -1 -1 -1 -2 -2 -2 -2 -2 -2
1 6 7 9 13 14 13 10 9 8 6 5 7 8 8 8 5 3 2 0 1 -0 -1 -1 -1 -1 -1 -1 -1 -1 -1 -1 -1 -1 -1 -1 -1 -1 -1 -1 -1 -1 -2 -2 -2 -2 -2 -2 -2
2 4 9 10 12 15 14 11 9 7 5 6 7 7 7 5 3 4 1 1 1 -0 -1 -1 -1 -1 -1 -1 -1 -1 -1 -1 -1 -1 -1 -1 -1 -1 -1 -1 -1 -2 -2 -2 -2 -2 -2 -2 -2
4 4 8 13 14 13 12 9 8 7 5 5 6 8 6 2 2 1 0 1 1 -0 -1 -1 -1 -1 -1 -1 -1 -1 -1 -1 -1 -1 -1 -1 -1 -1 -1 -1 -1 -2 -2 -2 -2 -3 -2 -2 -2
4 6 11 12 13 13 11 9 8 8 6 5 6 7 7 3 1 1 1 1 1 -0 -1 -1 -1 -1 -1 -1 -1 -1 -1 -1 -1 -1 -1 -1 -1 -1 -1 -1 -1 -2 -2 -2 -2 -2 -2 -2 -2
6 7 12 14 13 12 10 8 8 7 5 4 6 6 6 1 2 1 1 1 1 -0 -0 -1 -1 -1 -1 -1 -1 -1 -1 -1 -1 -1 -1 -1 -1 -1 -1 -1 -1 -2 -2 -2 -2 -2 -2 -2 -2
7 9 12 12 12 12 10 8 8 6 5 5 4 6 5 3 1 1 1 0 0 -0 -0 -0 -1 -1 -1 -1 -1 -1 -1 -1 -1 -1 -1 -1 -1 -1 -1 -1 -1 -2 -2 -2 -2 -2 -2 -2 -2
5 8 11 11 12 12 9 8 6 5 6 3 4 6 6 3 1 1 1 0 0 -0 -0 -0 -1 -1 -1 -1 -1 -1 -1 -1 -1 -1 -1 -1 -1 -1 -1 -1 -1 -2 -2 -2 -2 -2 -2 -2 -2
3 8 11 10 10 10 7 8 6 4 4 4 4 4 4 3 1 1 2 1 1 1 0 -0 -0 -1 -1 -1 -1 -1 -1 -1 -1 -1 -1 -1 -1 -1 -1 -1 -2 -1 -2 -2 -2 -2 -2 -2 -2
6 9 9 7 7 8 7 8 6 5 5 5 5 4 4 4 3 2 2 2 2 1 1 0 -0 -0 -1 -1 -1 -1 -1 -1 -1 -1 -1 -1 -1 -1 -1 -1 -1 -1 -2 -2 -1 -1 -1 -1 -1
7 9 7 7 6 6 7 8 7 6 6 5 6 6 5 4 4 4 3 2 2 1 1 0 -0 -0 -0 -0 -1 -1 -1 -1 -1 -1 -1 -2 -1 -1 -1 -1 -1 -1 -1 -1 -1 -1 -1 -2 -1
10 8 7 6 6 8 8 8 9 7 6 5 5 5 5 5 5 5 4 4 2 1 1 0 -0 0 -0 -1 -0 -1 -0 -1 -1 -1 -1 -1 -0 -1 -1 -1 -1 -1 -1 -1 -1 -1 -1 -1 -1
10 10 10 9 10 9 9 10 9 9 7 6 5 5 6 6 6 5 4 3 2 1 1 0 -0 0 -0 -0 -0 -0 -0 -0 -1 -1 -1 -1 -0 -0 -1 -1 -1 -1 -1 -1 -1 -1 -1 -1 -1
10 10 10 10 10 10 10 9 10 9 7 7 6 6 7 6 6 6 6 5 3 1 1 0 0 -0 -0 0 -0 -0 -0 -1 -1 -1 -1 -1 -1 -1 -1 -0 -0 -1 -1 -1 -1 -1 -1 -0 -1
8 11 11 11 10 10 10 12 11 10 9 8 7 7 7 7 7 7 6 6 4 4 2 0 0 -0 -0 -0 -0 -0 -0 -1 -0 -1 -1 -1 -1 -1 -1 -0 -0 -1 -1 -1 -1 -1 -0 0 -0
10 11 13 12 10 10 10 14 11 9 10 10 9 8 8 7 7 7 7 6 5 4 2 2 1 -0 0 -0 -0 -0 -0 -0 -0 -1 -1 -1 -1 -1 -1 -0 -0 -1 -1 -1 -0 0 1 1 0
11 14 13 11 10 10 11 13 11 9 9 10 9 9 9 8 7 6 7 6 5 4 3 2 1 0 0 -0 -0 -0 -0 -0 -0 -1 -1 -1 -1 -1 -0 0 -0 -1 -0 -0 0 1 1 1 1
13 13 12 12 10 9 10 11 10 9 9 9 9 10 9 8 8 7 6 5 5 4 3 2 2 1 -0 0 0 0 0 0 -0 -0 -0 -1 -1 -1 -0 -0 -0 -0 0 0 0 0 1 1 1
11 12 12 11 9 9 10 10 10 8 8 8 8 8 9 8 8 7 6 4 4 3 2 2 2 0 1 0 1 1 2 1 0 -0 -0 -0 -0 -1 -0 0 -0 -0 0 0 -0 0 1 1 1
11 12 12 10 9 10 10 11 9 8 8 7 7 7 7 7 8 7 5 5 4 4 3 2 2 1 1 1 0 1 1 0 0 -0 -0 -0 -0 -0 0 -0 0 -0 0 0 0 1 1 1 1
11 11 11 12 10 9 11 12 11 9 8 8 7 7 7 7 6 5 6 6 5 5 4 3 2 2 2 1 -0 0 0 1 1 1 1 0 -0 -0 -0 0 -0 -0 0 1 1 1 1 2 1
12 9 10 11 12 15 11 16 12 10 9 8 8 7 7 6 5 4 4 4 5 5 5 4 3 2 2 1 1 1 2 2 2 1 1 0 -0 -0 -0 -0 -0 0 0 1 0 0 1 1 2
11 9 10 11 12 13 13 15 12 11 11 9 8 7 6 5 5 5 5 4 3 3 4 4 3 3 2 2 1 1 2 1 1 1 1 1 0 -0 0 0 0 0 0 0 0 0 1 1 2
8 10 11 12 12 16 13 14 14 12 10 9 8 7 6 5 5 4 4 3 3 2 2 2 1 2 2 2 2 1 1 2 2 2 2 2 1 1 0 0 0 -0 0 0 0 0 0 1 1
9 11 15 16 16 16 13 14 13 10 8 8 8 7 5 5 5 4 4 4 3 2 2 1 1 2 1 1 2 1 1 1 2 2 2 2 2 1 1 0 0 0 0 0 -0 0 0 1 1
11 11 14 19 17 15 13 16 12 8 7 7 6 5 5 5 5 4 4 4 3 3 2 2 2 2 1 1 1 1 1 1 1 1 1 1 1 1 0 0 0 0 -0 -0 -0 0 0 0 1
11 12 10 13 13 15 14 12 9 7 7 6 6 6 6 5 5 4 4 3 3 3 2 2 2 1 1 1 1 1 1 1 1 1 1 1 0 0 0 0 0 0 0 0 0 1 1 0 0
9 8 13 12 18 18 14 13 13 9 8 7 6 6 5 5 5 4 3 3 3 2 2 2 1 2 1 1 1 1 1 1 1 1 1 1 0 0 0 1 0 0 0 0 0 1 0 1 1
10 11 11 12 13 16 17 13 8 9 7 7 6 5 5 4 4 3 3 3 2 2 3 2 2 2 2 1 1 1 1 1 1 1 1 1 1 1 1 1 1 1 1 0 1 1 1 1 1
8 10 10 14 15 14 14 14 7 7 6 6 6 5 4 4 4 3 3 3 2 2 2 2 2 2 2 2 2 1 1 1 1 1 1 0 1 1 1 1 1 1 1 1 1 1 1 1 1